Tracking 21679 objects as of 31-Oct-2020
HD Live streaming from Space Station
objects crossing your sky now

ARIANE 1 DEB

Track ARIANE 1 DEB now!
10-day predictions


NORAD ID: 39106
Int'l Code: 1986-019VU
Perigee: 791.4 km
Apogee: 883.6 km
Inclination: 98.6 °
Period: 101.5 minutes
Semi major axis: 7208 km
RCS: 0.0054 m2 (small)
Launch date: February 22, 1986
Source: France (FR)
Launch site: FRENCH GUIANA (FRGUI)

Note: This is SATELLITE DEBRIS
aabbcc
Your satellite tracking list
Your tracking list is empty




NASA's NSSDC Master Catalog

Two Line Element Set (TLE):
1 39106U 86019VU  20298.90010280 +.00000025 +00000-0 +32416-4 0  9991
2 39106 098.6384 005.2368 0063909 252.9216 106.4953 14.18525489840790
Source of the keplerian elements: AFSPC